Total_Precipitation_Accumulation
0.03 0.03 0.03 0.03 0.04 0.05 0.06 0.06 0.07 0.08 0.08 0.10 0.11 0.12 0.13 0.13 0.13 0.14 0.14 0.15 0.18 0.21 0.25 0.30 0.35 0.40 0.43 0.46 0.50 0.55 0.62 0.72 0.73 0.54 0.45 0.42 0.40 0.35 0.31 0.29 0.25 0.23 0.20
0.04 0.04 0.04 0.05 0.05 0.05 0.06 0.06 0.07 0.07 0.07 0.07 0.07 0.08 0.09 0.09 0.09 0.09 0.10 0.11 0.13 0.15 0.18 0.22 0.26 0.30 0.35 0.40 0.45 0.47 0.48 0.52 0.59 0.53 0.39 0.34 0.30 0.26 0.23 0.22 0.21 0.21 0.19
0.04 0.05 0.05 0.05 0.06 0.06 0.06 0.06 0.06 0.06 0.06 0.06 0.05 0.05 0.06 0.06 0.07 0.08 0.09 0.11 0.12 0.14 0.18 0.23 0.28 0.33 0.38 0.41 0.43 0.44 0.44 0.46 0.53 0.55 0.39 0.30 0.26 0.22 0.22 0.18 0.19 0.19 0.17
0.05 0.06 0.06 0.06 0.07 0.07 0.08 0.08 0.07 0.06 0.06 0.05 0.05 0.06 0.06 0.07 0.08 0.10 0.11 0.14 0.17 0.20 0.23 0.28 0.31 0.33 0.33 0.33 0.34 0.35 0.39 0.41 0.42 0.46 0.41 0.32 0.27 0.21 0.21 0.19 0.18 0.17 0.18
0.08 0.08 0.08 0.08 0.09 0.09 0.10 0.10 0.09 0.08 0.07 0.07 0.08 0.08 0.09 0.09 0.12 0.15 0.18 0.21 0.25 0.29 0.31 0.31 0.30 0.28 0.25 0.24 0.26 0.28 0.31 0.34 0.41 0.48 0.46 0.36 0.27 0.24 0.21 0.21 0.26 0.25 0.24
0.09 0.10 0.10 0.10 0.11 0.11 0.12 0.11 0.11 0.12 0.13 0.13 0.14 0.15 0.17 0.19 0.26 0.25 0.23 0.28 0.32 0.32 0.30 0.26 0.24 0.21 0.19 0.19 0.20 0.22 0.28 0.37 0.45 0.52 0.50 0.41 0.30 0.29 0.32 0.39 0.46 0.51 0.44
0.11 0.12 0.13 0.16 0.17 0.15 0.16 0.18 0.19 0.20 0.23 0.28 0.30 0.30 0.33 0.39 0.40 0.32 0.27 0.24 0.24 0.24 0.22 0.19 0.17 0.15 0.14 0.12 0.11 0.15 0.19 0.27 0.36 0.40 0.36 0.26 0.24 0.24 0.38 0.50 0.54 0.59 0.52
0.17 0.19 0.19 0.20 0.24 0.25 0.25 0.28 0.29 0.32 0.38 0.44 0.46 0.45 0.42 0.41 0.36 0.28 0.23 0.17 0.14 0.12 0.09 0.08 0.07 0.06 0.06 0.10 0.16 0.20 0.14 0.11 0.12 0.14 0.14 0.15 0.19 0.25 0.41 0.59 0.66 0.68 0.53
0.20 0.23 0.23 0.25 0.28 0.32 0.37 0.41 0.40 0.40 0.42 0.44 0.40 0.37 0.33 0.30 0.22 0.15 0.11 0.10 0.08 0.06 0.04 0.04 0.05 0.04 0.06 0.18 0.26 0.26 0.14 0.05 0.04 0.08 0.13 0.14 0.17 0.20 0.28 0.49 0.68 0.78 0.64
0.20 0.24 0.25 0.27 0.32 0.36 0.40 0.45 0.46 0.43 0.38 0.32 0.27 0.22 0.18 0.15 0.11 0.08 0.06 0.05 0.04 0.04 0.04 0.03 0.03 0.05 0.12 0.25 0.26 0.24 0.13 0.05 0.08 0.07 0.06 0.05 0.04 0.06 0.16 0.36 0.75 1.13 0.92
0.25 0.28 0.30 0.31 0.34 0.36 0.38 0.37 0.34 0.30 0.23 0.17 0.13 0.10 0.07 0.05 0.04 0.03 0.03 0.05 0.06 0.08 0.06 0.03 0.02 0.09 0.19 0.23 0.19 0.09 0.10 0.18 0.15 0.06 0.05 0.04 0.04 0.04 0.08 0.16 0.42 1.03 1.34
0.28 0.28 0.30 0.29 0.27 0.23 0.22 0.21 0.18 0.13 0.10 0.07 0.04 0.02 0.02 0.01 0.01 0.01 0.03 0.07 0.11 0.12 0.08 0.05 0.06 0.14 0.16 0.11 0.06 0.05 0.12 0.13 0.05 0.05 0.06 0.06 0.08 0.11 0.15 0.21 0.27 0.44 0.78
0.22 0.22 0.21 0.18 0.15 0.12 0.08 0.07 0.05 0.04 0.03 0.03 0.02 0.01 0.01 0.00 0.00 0.00 0.03 0.08 0.13 0.12 0.09 0.12 0.14 0.11 0.06 0.02 0.03 0.05 0.06 0.05 0.09 0.16 0.15 0.13 0.15 0.22 0.28 0.32 0.32 0.35 0.41
0.11 0.10 0.09 0.07 0.05 0.04 0.02 0.01 0.01 0.01 0.01 0.00 0.00 0.01 0.01 0.00 0.00 0.01 0.05 0.08 0.09 0.10 0.12 0.12 0.07 0.03 0.02 0.02 0.02 0.02 0.03 0.07 0.19 0.26 0.22 0.17 0.18 0.25 0.31 0.41 0.52 0.54 0.59
0.03 0.02 0.02 0.01 0.01 0.01 0.01 0.00 0.00 0.00 0.00 0.00 0.01 0.01 0.02 0.02 0.03 0.10 0.13 0.11 0.14 0.15 0.14 0.05 0.01 0.01 0.02 0.02 0.01 0.01 0.03 0.06 0.13 0.18 0.24 0.26 0.25 0.33 0.42 0.55 0.70 0.77 0.80
0.01 0.00 0.00 0.00 0.00 0.00 0.00 0.00 0.00 0.00 0.00 0.00 0.01 0.02 0.02 0.04 0.07 0.10 0.12 0.16 0.17 0.13 0.07 0.02 0.02 0.03 0.04 0.04 0.04 0.05 0.04 0.08 0.17 0.28 0.31 0.35 0.42 0.49 0.58 0.65 0.79 0.88 0.82
0.00 0.00 0.00 0.00 0.00 0.00 0.00 0.00 0.00 0.00 0.00 0.00 0.00 0.01 0.02 0.04 0.05 0.07 0.11 0.14 0.07 0.04 0.03 0.04 0.05 0.05 0.05 0.06 0.09 0.12 0.14 0.14 0.27 0.41 0.49 0.53 0.59 0.63 0.70 0.77 0.79 0.76 0.64
0.00 0.00 0.00 0.00 0.00 0.00 0.00 0.00 0.00 0.00 0.00 0.00 0.00 0.00 0.02 0.03 0.04 0.06 0.09 0.06 0.01 0.02 0.04 0.06 0.06 0.06 0.07 0.10 0.14 0.21 0.25 0.26 0.35 0.48 0.56 0.61 0.68 0.76 0.80 0.78 0.72 0.66 0.57
0.00 0.00 0.00 0.00 0.00 0.00 0.00 0.00 0.00 0.00 0.01 0.00 0.00 0.00 0.00 0.01 0.03 0.04 0.04 0.01 0.03 0.05 0.05 0.05 0.05 0.07 0.11 0.14 0.18 0.26 0.35 0.45 0.52 0.65 0.68 0.70 0.75 0.87 0.83 0.70 0.57 0.43 0.35
0.00 0.00 0.00 0.00 0.00 0.00 0.00 0.00 0.01 0.01 0.01 0.01 0.01 0.01 0.01 0.02 0.03 0.01 0.01 0.01 0.04 0.05 0.05 0.05 0.05 0.07 0.13 0.18 0.23 0.31 0.41 0.48 0.56 0.65 0.70 0.72 0.75 0.81 0.75 0.54 0.37 0.29 0.23
0.01 0.01 0.01 0.01 0.00 0.00 0.00 0.01 0.01 0.02 0.02 0.02 0.01 0.01 0.04 0.05 0.03 0.01 0.01 0.02 0.04 0.05 0.07 0.08 0.08 0.10 0.15 0.21 0.28 0.34 0.45 0.52 0.61 0.71 0.73 0.69 0.65 0.56 0.40 0.30 0.25 0.24 0.24
0.02 0.02 0.01 0.01 0.01 0.01 0.01 0.02 0.02 0.02 0.02 0.02 0.01 0.02 0.03 0.02 0.01 0.02 0.02 0.02 0.02 0.03 0.06 0.11 0.12 0.12 0.25 0.42 0.56 0.62 0.57 0.55 0.60 0.69 0.67 0.54 0.44 0.33 0.26 0.25 0.22 0.22 0.23
0.03 0.02 0.02 0.02 0.02 0.02 0.02 0.01 0.01 0.01 0.02 0.02 0.02 0.02 0.02 0.02 0.02 0.02 0.02 0.02 0.02 0.03 0.04 0.09 0.14 0.14 0.20 0.41 0.64 0.94 1.02 0.85 0.77 0.78 0.74 0.56 0.39 0.32 0.32 0.31 0.26 0.24 0.20
0.04 0.04 0.04 0.03 0.03 0.02 0.02 0.02 0.02 0.02 0.02 0.02 0.02 0.02 0.02 0.02 0.02 0.02 0.02 0.02 0.02 0.02 0.04 0.10 0.16 0.19 0.25 0.43 0.62 0.78 0.92 1.01 1.10 1.01 0.88 0.79 0.58 0.43 0.36 0.31 0.24 0.20 0.18
0.06 0.05 0.05 0.04 0.04 0.03 0.03 0.03 0.02 0.02 0.02 0.02 0.02 0.03 0.03 0.03 0.02 0.02 0.02 0.02 0.03 0.03 0.03 0.07 0.17 0.25 0.33 0.45 0.61 0.73 0.77 0.85 0.91 0.84 0.68 0.57 0.46 0.36 0.32 0.27 0.21 0.17 0.15
0.07 0.07 0.06 0.06 0.05 0.04 0.04 0.04 0.03 0.03 0.03 0.04 0.04 0.04 0.04 0.04 0.03 0.03 0.03 0.03 0.05 0.05 0.04 0.06 0.11 0.24 0.35 0.46 0.53 0.64 0.72 0.66 0.46 0.31 0.33 0.36 0.34 0.28 0.26 0.25 0.20 0.16 0.14